La Mesa, Honduras

2:50 AM CST on January 21, 2018 (GMT -0600)
La Mesa International

Weather History for MHLM - December, 2013

Change the Weather History Date:

Tuesday, December 3, 2013

  Actual Average Record
Temperature  
Mean Temperature 78 °F -  
Max Temperature 90 °F 81 °F 90 °F (2013)
Min Temperature 67 °F 67 °F 60 °F (1999)
Cooling Degree Days 14    
Growing Degree Days 28 (Base 50)    
Moisture  
Dew Point 73 °F    
Average Humidity 88    
Maximum Humidity 100    
Minimum Humidity 57    
Precipitation  
Precipitation 0.00 in 0.15 in - ()
Sea Level Pressure  
Sea Level Pressure 29.86 in    
Wind  
Wind Speed 3 mph ()    
Max Wind Speed 9 mph    
Max Gust Speed -    
Visibility 6.5 miles    
Events      
Averages and records for this station are not official NWS values.
T = Trace of Precipitation, MM = Missing Value Source: Averaged Metar Reports

Daily Weather History Graph

Daily Weather History Graph

Search for Another Location

Airport or City:

Trip Planner

Search our weather history database for the weather conditions in past years. The results will help you decide how hot, cold, wet, or windy it might be!

Date:

Astronomy

Dec. 03, 2013 Rise Set
Actual Time 6:03 AM CST 5:19 PM CST
Civil Twilight 5:40 AM CST 5:42 PM CST
Nautical Twilight 5:13 AM CST 6:09 PM CST
Astronomical Twilight 4:47 AM CST 6:35 PM CST
Moon 6:36 AM CST (12/3) 6:18 PM CST (12/3)
Length of Visible Light 12h 02m
Length of Day
11h 15m
New Moon, 1% of the Moon is Illuminated
Dec 3
New Moon
Dec 9
First Quarter
Dec 17
Full
Dec 25
Last Quarter
Jan 1
New

Hourly Weather History & Observations

Time (CST) Temp. Heat Index Dew Point Humidity Pressure Visibility Wind Dir Wind Speed Gust Speed Precip Events Conditions
12:00 AM 69 °F - 69 °F 98% 29.94 in 7 mi WNW 2.3 mph - -   Haze
12:00 AM 68.0 °F - 68.0 °F 100% 29.92 in 6.2 mi SSW 2.3 mph - N/A   Partly Cloudy
1:00 AM 68.0 °F - 68.0 °F 100% 29.92 in 6.2 mi SSW 2.3 mph - N/A   Partly Cloudy
2:00 AM 68.0 °F - 68.0 °F 100% 29.89 in 6.2 mi SW 2.3 mph - N/A   Partly Cloudy
3:00 AM 68 °F - 68 °F 99% 29.89 in 7 mi South 2.3 mph - -   Haze
3:00 AM 68.0 °F - 68.0 °F 100% 29.89 in 6.2 mi South 2.3 mph - N/A   Partly Cloudy
4:00 AM 68.0 °F - 68.0 °F 100% 29.89 in 6.2 mi South 3.5 mph - N/A   Partly Cloudy
5:00 AM 68.0 °F - 68.0 °F 100% 29.89 in 6.2 mi West 2.3 mph - N/A   Partly Cloudy
6:00 AM 68.0 °F - 68.0 °F 100% 29.89 in 6.2 mi South 4.6 mph - N/A   Partly Cloudy
7:00 AM 69.8 °F - 69.8 °F 100% 29.92 in 6.2 mi Calm Calm - N/A   Partly Cloudy
8:00 AM 73.4 °F - 71.6 °F 94% 29.92 in 6.2 mi SSW 4.6 mph - N/A   Partly Cloudy
9:00 AM 77 °F - 74 °F 90% 29.95 in 9 mi South 4.6 mph - -  
9:00 AM 77.0 °F - 75.2 °F 94% 29.95 in 6.2 mi South 4.6 mph - N/A   Partly Cloudy
10:00 AM 82.4 °F 89.5 °F 75.2 °F 79% 29.92 in 6.2 mi South 3.5 mph - N/A   Partly Cloudy
11:00 AM 86.0 °F 95.1 °F 75.2 °F 70% 29.89 in 6.2 mi SSE 4.6 mph - N/A   Partly Cloudy
12:00 PM 88 °F - 75 °F 57% 29.87 in 9 mi South 3.5 mph - -   Haze
12:00 PM 87.8 °F 97.6 °F 75.2 °F 66% 29.86 in 6.2 mi South 3.5 mph - N/A   Scattered Clouds
1:00 PM 89.6 °F 102.2 °F 77.0 °F 66% 29.80 in 6.2 mi ENE 5.8 mph - N/A   Partly Cloudy
2:00 PM 89.6 °F 102.2 °F 77.0 °F 66% 29.77 in 6.2 mi NE 6.9 mph - N/A   Partly Cloudy
3:00 PM 89 °F - 78 °F 62% 29.77 in 7 mi ENE 4.6 mph - -   Haze
3:00 PM 89.6 °F 102.2 °F 77.0 °F 66% 29.77 in 6.2 mi NNE 8.1 mph - N/A   Partly Cloudy
4:00 PM 87.8 °F 99.7 °F 77.0 °F 70% 29.77 in 6.2 mi NNE 9.2 mph - N/A   Partly Cloudy
5:00 PM 82.4 °F 90.9 °F 77.0 °F 84% 29.77 in 6.2 mi NNE 9.2 mph - N/A   Partly Cloudy
6:00 PM 79 °F - 76 °F 86% 29.80 in 9 mi North 5.8 mph - -   Haze
6:00 PM 78.8 °F - 75.2 °F 89% 29.80 in 6.2 mi North 5.8 mph - N/A   Partly Cloudy
7:00 PM 77.0 °F - 75.2 °F 94% 29.80 in 6.2 mi Calm Calm - N/A   Partly Cloudy
8:00 PM 75.2 °F - 75.2 °F 100% 29.83 in 6.2 mi Calm Calm - N/A   Partly Cloudy
9:00 PM 75 °F - 74 °F 97% 29.86 in 6 mi Calm Calm - -   Haze
9:00 PM 75.2 °F - 75.2 °F 100% 29.86 in 6.2 mi Calm Calm - N/A   Partly Cloudy
10:00 PM 73.4 °F - 73.4 °F 100% 29.89 in 6.2 mi NNW 4.6 mph - N/A   Partly Cloudy
11:00 PM 71.6 °F - 71.6 °F 100% 29.89 in 6.2 mi Calm Calm - N/A   Partly Cloudy